PulseSat

PulseSat

COSMOS 2516 (753)

Last updated on March 21, 2019, 3:13 a.m. UTC

1 41554U 16032A   19078.78569506  .00000038  00000-0  00000-0 0  9993
2 41554  64.3050 282.7838 0010065 215.6686 135.6215  2.13101857 21827
UTC
Height (km)
Latitude
Longitude
Inclination
Orbital Period

Next 30 passes for location: Hong Kong

Rise time Rise Azimuth (degrees) Set time Set Azimuth (degrees) Duration Max altitude (degrees)

No matching passes for this satellites

PulseSat

PulseSat is the new satellites software and hardware trackering solution by Pulsely.
Satellite Two Line Element Set source: US Air Force Space Command

Download PulseSat for iOS
© 2017 Pulsely Limited